GSAT-17

Last updated on May 21, 2019, 3:10 a.m. UTC

1 42815U 17040B   19140.09007646 -.00000268  00000-0  00000+0 0  9995
2 42815   0.0366 267.6145 0002900  15.3742  80.3922  1.00273968  6951
UTC
Height (km)
Latitude
Longitude
Inclination
Orbital Period
UTC large
Height (km)
Speed (km/s)
/
Latitude / Longitude
Inclination (degrees)
Orbital Period (minutes)
Azimuth
Elevation
Range (km)
Doppler Factor
iOS Compass Heading
iOS Angle

Next 30 passes for location: Hong Kong

Rise time Rise Azimuth (degrees) Set time Set Azimuth (degrees) Duration Max altitude (degrees)

No matching passes for this satellites